Powrót do katalogu

STARLINK-37802

AktywnyŁącznośćSSO
NORAD 69318·PAYLOAD·🇺🇸 United States

Wystrzelony May 30, 2026 z Vandenberg Space Force Base

Loading…

Następne Przeloty (najbliższe 24 godziny)

TLE

ŚwieżeSource: CelesTrak SupGP

Epoka: Sep 15, 2026, 03:57 UTC

1 69318C 26119Y   26258.16506944 -.00055714  00000+0 -17296-2 0  2582
2 69318  97.2827 283.0512 0001250  90.6929 159.1998 15.33465453    10

Śledź STARLINK-37802 w czasie rzeczywistym z AllMySat

Download on the App Store